Flag for Canada Weather past 2 weeks in Camrose, Alberta, Canada

Now
41 °F

Passing clouds.


Feels Like: 36 °F
Forecast: 44 / 73 °F
Wind: 7 mph from South

Location: Edmonton International

Current Time: Jul 6, 2015 at 5:51:13 AM

Latest Report: Jul 6, 2015 at 5:00 AM


Visibility: 15 mi

Pressure: 30.19 "Hg (27.56 "Hg at 744m altitude)

Humidity: 93%

Dew point: 39 °F

Location of CamroseLocation

Historic Weather in Camrose — Graph

°F

Camrose temperature yesterday

Maximum temperature yesterday: 66 °F (at 4:00 PM)
Minimum temperature yesterday: 46 °F (at 11:00 PM)
Average temperature yesterday: 57 °F

Past Weeks' High & Low Weather Summary

 TemperatureHumidityPressure
High88 °F (Jun 28, 2:00 PM)100% (Jul 1, 3:00 AM)30.22 "Hg (Jul 1, 3:00 AM)
Low41 °F (Jul 6, 5:00 AM)24% (Jun 27, 12:00 PM)29.78 "Hg (Jul 3, 8:00 PM)
Average65 °F65%30.01 "Hg
* Reported Jun 21 5:00 AM — Jul 6 5:00 AM, Camrose, Weather by CustomWeather, © 2015

Note: Actual official high and low records may vary slightly from our data, if they occured in-between our weather recording intervals... More about our weather records

Advertising

Camrose weather history for previous 24 hours

 ConditionsComfort  
Time TempWeatherWind HumidityBarometerVisibility
5:00 AM
Mon, Jul 6
41 °FPassing clouds.7 mph93%30.19 "Hg15 mi
4:00 AM43 °FPassing clouds.7 mph87%30.20 "Hg15 mi
3:00 AM45 °FPartly cloudy.8 mph87%30.21 "Hg15 mi
2:00 AM46 °FPartly cloudy.9 mph82%30.21 "Hg15 mi
1:00 AM46 °FPassing clouds.6 mph82%30.21 "Hg15 mi
12:00 AM52 °FPassing clouds.7 mph67%30.21 "Hg15 mi
11:00 PM
Sun, Jul 5
46 °FOvercast.6 mph76%30.22 "Hg15 mi
10:00 PM54 °FBroken clouds.No wind63%30.21 "Hg15 mi
9:00 PM59 °FPartly sunny.5 mph51%30.19 "Hg15 mi
8:00 PM63 °FPartly sunny.6 mph49%30.19 "Hg15 mi
7:00 PM66 °FPartly sunny.12 mph37%30.19 "Hg15 mi
6:00 PM66 °FBroken clouds.13 mph37%30.19 "Hg15 mi
5:00 PM66 °FScattered clouds.13 mph35%30.20 "Hg15 mi
4:00 PM66 °FScattered clouds.12 mph40%30.20 "Hg15 mi
3:00 PM64 °FPartly sunny.8 mph40%30.21 "Hg15 mi
2:00 PM61 °FPartly sunny.10 mph52%30.21 "Hg15 mi
1:00 PM61 °FPartly sunny.10 mph55%30.22 "Hg15 mi
12:00 PM55 °FPartly sunny.9 mph72%30.22 "Hg15 mi
11:00 AM54 °FPartly sunny.13 mph72%30.22 "Hg15 mi
10:00 AM54 °FMore clouds than sun.16 mph72%30.21 "Hg15 mi
9:00 AM54 °FMore clouds than sun.12 mph77%30.19 "Hg15 mi
8:00 AM54 °FOvercast.14 mph72%30.17 "Hg15 mi
7:00 AM54 °FOvercast.15 mph77%30.16 "Hg15 mi
6:00 AM52 °FOvercast.9 mph88%30.15 "Hg15 mi
5:00 AM52 °FSprinkles. Overcast.9 mph88%30.15 "Hg15 mi
Weather by CustomWeather, © 2015

See weather overviewHow to use our weather pages